Location: Unspecified
(0.0000°N, 0.0000°E)
Time: 20:57:47
(UTC+00:00)

Hubble Space Telescope - Pass Details

Date: 02 June 2023
Orbit: 525 x 528 km, 28.5° (Epoch: 04 June)

Event Time Altitude Azimuth Distance (km) Brightness Sun altitude
Rises 18:23:23 0° 317° (NW) 2,633 5.7 -5.9°
Reaches altitude 10° 18:25:51 10° 330° (NNW) 1,746 4.3 -6.4°
Maximum altitude 18:29:21 28° 29° (NNE) 1,001 2.1 -7.2°
Drops below altitude 10° 18:32:50 10° 89° (E) 1,749 2.8 -8.0°
Enters shadow 18:33:09 - 92° (E) 1,855 2.9 -8.1°
